Regional Weather Roundup
Issued by NWS

Home | Current Version | Previous Version | Graphics & Text | Print | Product List | Glossary On
Versions: 1 2 3 4 5 6 7 8 9 10 11 12 13 14 15 16 17 18 19 20 21 22 23 24 25 26 27 28 29 30 31 32 33 34 35 36 37 38 39 40 41 42 43 44 45 46 47 48 49 50
000
ASUS43 KLSX 201507
RWRMO

WEATHER SUMMARY FOR MISSOURI
NATIONAL WEATHER SERVICE SPRINGFIELD MO
900 AM CST SAT DEC 20 2014

NOTE: "FAIR" INDICATES FEW OR NO CLOUDS BELOW 12,000 FEET WITH NO
       SIGNIFICANT WEATHER AND/OR OBSTRUCTIONS TO VISIBILITY.
       CURRENT SKY AND/OR WEATHER CONDITIONS ARE NOT AVAILABLE FOR
       CHILLICOTHE AND FARMINGTON.

MOZ001>031-035>038-043-044-053-054-201600-
...NORTHERN AND WESTERN MISSOURI...

CITY           SKY/WX    TMP DP  RH WIND       PRES   REMARKS
KANSAS CTY INT PTSUNNY   34  31  88 S13       30.16S WCI  25
KANSAS C DTWN  CLOUDY    35  31  85 S12       30.19S WCI  27
LEE`S SUMMIT   CLOUDY    34  31  88 S12       30.19F WCI  25
ST JOSEPH      CLOUDY    34  31  88 S7        30.17R WCI  28
CHILLICOTHE      N/A     34  33  96 S3        30.21S
KIRKSVILLE     FOG       34  34 100 S6        30.21R VSB<1/4 WCI  29

$$
MOZ066>068-077>081-088>096-101>105-201600-
...SOUTHWEST MISSOURI...

CITY           SKY/WX    TMP DP  RH WIND       PRES   REMARKS
SPRINGFIELD    CLOUDY    38  37  97 S5        30.22S FOG
JOPLIN         MOSUNNY   37  35  92 SW3       30.25S FOG

$$
MOZ032>034-039>042-045>050-055>058-069>072-201600-
...CENTRAL MISSOURI...

CITY           SKY/WX    TMP DP  RH WIND       PRES   REMARKS
COLUMBIA       CLOUDY    37  36  96 S8        30.23S FOG
JEFFERSON CITY CLOUDY    38  35  89 CALM      30.25S
ROLLA          CLOUDY    36  33  89 S7        30.23R FOG
SEDALIA        CLOUDY    39  36  89 SW7       30.23R
WHITEMAN AFB   CLOUDY    36  33  90 SW12      30.22S WCI  28
WARRENSBURG    CLOUDY    34  32  93 S7        30.22S FOG     WCI  28
OSAGE BEACH    CLOUDY    37  34  87 CALM      30.24R

$$
MOZ051-052-059>065-201600-
...EAST CENTRAL MISSOURI...

CITY           SKY/WX    TMP DP  RH WIND       PRES   REMARKS
ST LOUIS INTL  CLOUDY    37  28  70 S5        30.28R
SPIRIT OF STL  CLOUDY    36  30  80 S3        30.28R
ST CHARLES     CLOUDY    36  30  79 SE5       30.28R HAZE

$$
MOZ072>076-082>087-097>100-106>115-201600-
...SOUTH CENTRAL AND SOUTHEAST MISSOURI...

CITY           SKY/WX    TMP DP  RH WIND       PRES   REMARKS
CAPE GIRARDEAU CLOUDY    36  30  79 E3        30.30S
FARMINGTON     CLOUDY    36  32  87 E3        30.28R
POPLAR BLUFF   CLOUDY    37  31  78 E5        30.28S
WEST PLAINS    CLOUDY    35  32  88 CALM      30.25R

$$



USA.gov is the U.S. government's official web portal to all federal, state and local government web resources and services.